DW2485 Weather Reports


time (UTC)temp
F
wind
direction
speed
knots
gust
knots
rain 1hr
in
rain 24hr
in
rain mn
in
humidity
%
barometer
mb
20260901210505 94 174 2.6 6.1 0.00 0.00 0.00 60 1014.5
20260901210005 94 213 4.3 8.7 0.00 0.00 0.00 60 1014.4
20260901205505 94 222 3.5 7.0 0.00 0.00 0.00 62 1014.5
20260901205005 94 198 3.5 6.1 0.00 0.00 0.00 61 1014.6
20260901204505 94 184 2.6 6.1 0.00 0.00 0.00 62 1014.6
20260901202005 93 211 5.2 7.8 0.00 0.00 0.00 60 1014.8
20260901201505 93 211 5.2 7.8 0.00 0.00 0.00 62 1014.9
20260901201005 93 187 4.3 8.7 0.00 0.00 0.00 63 1014.9
20260901200005 93 208 3.5 5.2 0.00 0.00 0.00 65 1014.9
20260901195005 93 174 3.5 7.0 0.00 0.00 0.00 62 1014.9
20260901193505 93 174 5.2 8.7 0.00 0.00 0.00 61 1014.9
20260901193005 93 205 4.3 7.0 0.00 0.00 0.00 62 1015.0
20260901191504 93 186 2.6 8.7 0.00 0.00 0.00 63 1015.1
20260901190505 94 201 3.5 7.8 0.00 0.00 0.00 66 1015.0
20260901185505 93 196 4.3 8.7 0.00 0.00 0.00 67 1015.2
20260901185006 93 208 3.5 7.8 0.00 0.00 0.00 64 1015.3
20260901184005 93 186 4.3 7.8 0.00 0.00 0.00 66 1015.3
20260901183505 93 191 4.3 7.8 0.00 0.00 0.00 64 1015.3
20260901182505 92 212 4.3 6.1 0.00 0.00 0.00 67 1015.4
20260901182005 92 234 2.6 6.1 0.00 0.00 0.00 67 1015.4
20260901181005 92 224 4.3 6.1 0.00 0.00 0.00 71 1015.4
20260901180505 92 206 3.5 7.8 0.00 0.00 0.00 69 1015.4
20260901175005 91 228 4.3 6.1 0.00 0.00 0.00 67 1015.6
20260901174504 91 209 5.2 7.0 0.00 0.00 0.00 71 1015.7
20260901174006 91 183 4.3 8.7 0.00 0.00 0.00 69 1015.8
20260901173504 91 192 5.2 7.8 0.00 0.00 0.00 68 1015.9
20260901173005 91 183 5.2 7.8 0.00 0.00 0.00 69 1016.0
20260901172504 91 172 4.3 7.0 0.00 0.00 0.00 69 1015.9
20260901172005 91 185 3.5 6.1 0.00 0.00 0.00 70 1015.9
20260901171005 90 214 4.3 7.0 0.00 0.00 0.00 68 1015.9
20260901170004 91 235 2.6 6.1 0.00 0.00 0.00 71 1015.9
20260901165005 90 187 2.6 7.8 0.00 0.00 0.00 72 1015.9
20260901163506 90 220 3.5 7.0 0.00 0.00 0.00 71 1015.8
20260901163005 89 173 4.3 7.0 0.00 0.00 0.00 74 1015.8
20260901162005 90 186 4.3 6.1 0.00 0.00 0.00 75 1016.0
20260901161504 89 172 2.6 7.0 0.00 0.00 0.00 75 1016.0
20260901161017 89 184 3.5 7.0 0.00 0.00 0.00 75 1016.0
20260901155505 88 210 1.7 5.2 0.00 0.00 0.00 79 1015.9
20260901155005 88 157 2.6 6.1 0.00 0.00 0.00 80 1016.0
20260901154505 86 147 2.6 5.2 0.00 0.00 0.00 83 1015.9
20260901154005 85 158 1.7 4.3 0.00 0.00 0.00 83 1015.9
20260901153504 85 172 4.3 7.0 0.00 0.00 0.00 83 1015.9
20260901153004 85 199 1.7 4.3 0.00 0.00 0.00 84 1016.0
20260901152505 85 199 3.5 6.1 0.00 0.00 0.00 85 1015.9
20260901151004 85 150 1.7 4.3 0.00 0.00 0.00 84 1015.9
20260901150504 84 158 2.6 4.3 0.00 0.00 0.00 86 1015.9
20260901145005 81 129 0.9 2.6 0.00 0.00 0.00 88 1016.0
20260901143504 80 163 2.6 4.3 0.00 0.00 0.00 90 1016.1
20260901143004 79 136 1.7 2.6 0.00 0.00 0.00 89 1016.0
20260901142005 78 194 1.7 2.6 0.00 0.00 0.00 91 1016.4
20260901141505 78 185 0.9 2.6 0.00 0.00 0.00 93 1016.2
20260901140504 77 279 0.0 1.7 0.00 0.00 0.00 92 1016.5
20260901134004 75 192 0.9 1.7 0.00 0.00 0.00 96 1016.7
20260901133505 74 184 0.9 2.6 0.00 0.00 0.00 96 1016.8
20260901132505 74 77 0.9 1.7 0.00 0.00 0.00 96 1016.7
20260901131505 72 50 0.0 0.9 0.00 0.00 0.00 95 1016.6
20260901131005 71 0 0.0 0.0 0.00 0.00 0.00 95 1016.6
20260901130505 71 0 0.0 0.0 0.00 0.00 0.00 95 1016.7
20260901125506 71 0 0.0 0.0 0.00 0.00 0.00 95 1016.6
20260901124505 71 0 0.0 0.0 0.00 0.00 0.00 95 1016.4
20260901123504 71 0 0.0 0.0 0.00 0.00 0.00 95 1016.4
20260901123005 71 0 0.0 0.0 0.00 0.00 0.00 95 1016.4
20260901122005 71 0 0.0 0.0 0.00 0.00 0.00 95 1016.3
20260901121504 71 0 0.0 0.0 0.00 0.00 0.00 95 1016.4
20260901120004 71 0 0.0 0.0 0.00 0.00 0.00 95 1016.3
20260901115505 71 0 0.0 0.0 0.00 0.00 0.00 95 1016.2
20260901112504 71 0 0.0 0.0 0.00 0.00 0.00 95 1015.7
20260901112004 71 0 0.0 1.7 0.00 0.00 0.00 95 1015.8
20260901111504 71 176 1.7 1.7 0.00 0.00 0.00 95 1015.9
20260901111004 71 176 1.7 1.7 0.00 0.00 0.00 95 1015.8
20260901104504 71 243 0.9 1.7 0.00 0.00 0.00 95 1015.5
20260901103004 71 243 0.9 1.7 0.00 0.00 0.00 95 1015.4
20260901102504 71 243 0.0 0.0 0.00 0.00 0.00 95 1015.4
20260901102004 71 243 0.0 0.0 0.00 0.00 0.00 95 1015.3
20260901101004 72 243 0.9 1.7 0.00 0.00 0.00 95 1015.2
20260901095005 72 243 0.0 0.9 0.00 0.00 0.00 95 1015.4
20260901094004 72 243 0.0 1.7 0.00 0.00 0.00 95 1015.2
20260901093504 72 243 0.0 0.9 0.00 0.00 0.00 95 1015.1
20260901092004 73 243 0.9 0.9 0.00 0.00 0.00 95 1015.2
20260901090504 73 243 0.9 1.7 0.00 0.00 0.00 94 1015.3
20260901085504 73 243 1.7 1.7 0.00 0.00 0.00 95 1015.3
20260901085004 73 243 1.7 1.7 0.00 0.00 0.00 95 1015.3
20260901084504 73 243 0.9 1.7 0.00 0.00 0.00 95 1015.2
20260901083504 73 243 0.0 0.0 0.00 0.00 0.00 94 1015.2
20260901082504 73 243 0.0 0.0 0.00 0.00 0.00 94 1015.1
20260901080004 74 243 0.0 0.9 0.00 0.00 0.00 94 1015.4
20260901073004 73 242 0.9 1.7 0.00 0.00 0.00 94 1015.4
20260901072504 74 243 0.9 0.9 0.00 0.00 0.00 94 1015.3
20260901071503 74 243 0.9 0.9 0.00 0.00 0.00 94 1015.3
20260901070504 74 243 0.9 0.9 0.00 0.00 0.00 94 1015.3
20260901070004 74 243 0.9 0.9 0.00 0.00 0.00 93 1015.3
20260901064504 75 242 1.7 1.7 0.00 0.00 0.00 93 1015.3
20260901064004 75 243 0.9 1.7 0.00 0.00 0.00 93 1015.3
20260901063504 75 243 0.9 0.9 0.00 0.00 0.00 93 1015.3
20260901062504 75 243 0.9 1.7 0.00 0.00 0.00 93 1015.4
20260901062003 75 243 0.9 1.7 0.00 0.00 0.00 93 1015.5
20260901061504 75 192 0.9 1.7 0.00 0.00 0.00 93 1015.5
20260901055504 75 187 1.7 2.6 0.00 0.00 0.00 93 1015.3
20260901054504 75 187 1.7 2.6 0.00 0.00 0.00 93 1015.3
20260901054004 75 187 1.7 2.6 0.00 0.00 0.00 93 1015.3
20260901053504 75 187 1.7 2.6 0.00 0.00 0.00 93 1015.1
20260901053004 75 187 1.7 2.6 0.00 0.00 0.00 93 1015.0
20260901052504 75 187 1.7 2.6 0.00 0.00 0.00 93 1015.0
20260901052004 75 217 1.7 2.6 0.00 0.00 0.00 93 1015.1
20260901051504 75 216 0.9 1.7 0.00 0.00 0.00 93 1015.2
20260901050504 76 217 0.9 0.9 0.00 0.00 0.00 92 1015.1
20260901050004 76 217 0.9 1.7 0.00 0.00 0.00 92 1014.9
20260901045504 76 217 0.9 1.7 0.00 0.00 0.00 92 1014.9
20260901045004 76 169 0.9 0.9 0.00 0.00 0.00 93 1014.9
20260901043006 75 169 0.0 0.9 0.00 0.00 0.00 93 1014.8
20260901042006 75 169 0.9 1.7 0.00 0.00 0.00 93 1014.8
20260901040506 76 160 1.7 1.7 0.00 0.00 0.00 92 1014.8
20260901040006 76 158 0.9 2.6 0.00 0.00 0.00 92 1014.7
20260901035506 76 158 1.7 2.6 0.00 0.00 0.00 93 1014.7
20260901034006 76 147 0.9 1.7 0.00 0.00 0.00 93 1014.7
20260901033506 76 147 0.9 1.7 0.00 0.00 0.00 93 1014.8
20260901032506 76 147 0.9 0.9 0.00 0.00 0.00 93 1014.9
20260901032006 77 147 0.0 1.7 0.00 0.00 0.00 93 1015.0
20260901031505 77 147 0.9 1.7 0.00 0.00 0.00 92 1014.9
20260901030506 76 171 0.0 0.9 0.00 0.00 0.00 92 1015.1
20260901030006 76 171 0.9 1.7 0.00 0.00 0.00 92 1015.2
20260901025005 77 171 0.0 0.9 0.00 0.00 0.00 91 1014.9
20260901024506 77 171 0.9 0.9 0.00 0.00 0.00 91 1014.9
20260901023506 77 159 1.7 2.6 0.00 0.00 0.00 92 1014.7
20260901023005 77 134 2.6 2.6 0.00 0.00 0.00 92 1014.7
20260901021506 76 161 1.7 1.7 0.00 0.00 0.00 92 1014.8
20260901021005 76 161 0.9 0.9 0.00 0.00 0.00 92 1014.9
20260901015506 76 161 1.7 1.7 0.00 0.00 0.00 91 1014.6
20260901015006 77 190 0.9 1.7 0.00 0.00 0.00 90 1014.6
20260901014505 77 190 0.9 0.9 0.00 0.00 0.00 89 1014.6
20260901014005 78 190 0.0 1.7 0.00 0.00 0.00 88 1014.6
20260901013506 79 190 0.9 1.7 0.00 0.00 0.00 86 1014.6
20260901012505 79 190 0.0 1.7 0.00 0.00 0.00 87 1014.5
20260901012006 79 190 0.0 0.9 0.00 0.00 0.00 85 1014.4
20260901011505 80 190 0.9 0.9 0.00 0.00 0.00 85 1014.3
20260901011005 80 190 0.0 0.9 0.00 0.00 0.00 83 1014.2
20260901010006 80 190 0.9 1.7 0.00 0.00 0.00 83 1014.2
20260901005006 81 199 1.7 2.6 0.00 0.00 0.00 83 1014.0
20260901004505 81 173 2.6 4.3 0.00 0.00 0.00 82 1014.1
20260901002506 83 230 1.7 2.6 0.00 0.00 0.00 79 1014.1
20260901001006 84 197 2.6 2.6 0.00 0.00 0.00 77 1013.9
20260831233505 86 194 4.3 7.0 0.00 0.00 0.00 74 1013.9
20260831233006 87 191 4.3 6.1 0.00 0.00 0.00 74 1014.0
20260831231505 86 192 5.2 7.8 0.00 0.00 0.00 73 1013.9
20260831231005 87 188 2.6 6.1 0.00 0.00 0.00 72 1013.8
20260831225006 87 188 2.6 8.7 0.00 0.00 0.00 71 1013.8
20260831224505 87 195 5.2 8.7 0.00 0.00 0.00 71 1013.7
20260831224005 88 197 4.3 7.8 0.00 0.00 0.00 71 1013.7
20260831223505 88 189 2.6 7.8 0.00 0.00 0.00 71 1013.6
20260831223005 88 186 5.2 7.8 0.00 0.00 0.00 72 1013.6
20260831222005 87 193 3.5 7.8 0.00 0.00 0.00 71 1013.6
20260831220005 88 177 5.2 10.4 0.00 0.00 0.00 69 1013.4
20260831215505 89 187 6.1 10.4 0.00 0.00 0.00 68 1013.3
20260831213005 88 163 7.8 10.4 0.00 0.00 0.00 70 1013.4
20260831212005 88 169 4.3 6.1 0.00 0.00 0.00 71 1013.6